User: anonymous   Login
Location: Norwich
(52.6280°N, 1.3030°E)
Time: 00:44:31
(UTC+01:00)
Language:

Meteor 1-22 Rocket - Orbit

View from above orbital plane
View from above orbital plane
View from above satellite
View from above satellite

Ground track
Ground track

The orbit data is extracted from the following two-line orbital elements,

1 08294U 75087B   16152.20249571  .00000286  00000-0  15076-3 0  9993
2 08294  81.2176  34.8072 0106460  39.9646 320.9297 14.08576731 91079
Epoch (UTC): 31 May 2016 04:51:35
Eccentricity: 0.0106460
inclination: 81.2176°
perigee height: 787 km
apogee height: 941 km
right ascension of ascending node: 34.8072°
argument of perigee: 39.9646°
revolutions per day: 14.08576731
mean anomaly at epoch: 320.9297°
orbit number at epoch: 9107

The dashed part of the orbit path shows where the satellite is in the earth's shadow,  

DLR